sat.trackr.live / text

‹ back to catalog

HULIANWANG DIGUI-44

NORAD 65047 · 2025-162E

PAYLOAD ACTIVE UNKNOWN

§ Identity

Operator
Country
PRC
Launch date
2025-07-30
Launch site
WSC
Launch vehicle
Mass (kg)
RCS (m²)

External: N2YO · Heavens-Above · Gunter

§ Orbital elements

Epoch: 2026-05-25T03:03:21.596256Z

Period
108.33 min
Inclination
50.0031°
Eccentricity
0.0000854
Mean motion
13.29315278 rev/d
Perigee alt
1,148.7 km
Apogee alt
1,150.0 km
Semi-major
7,527.5 km
B*
8.1677e-5
RAAN
348.4020°
Arg perigee
160.3395°
Mean anomaly
199.7510°
Rev number
4,030

§ Raw data

HULIANWANG DIGUI-441 65047U 25162E   26145.12733329 -.00000086  00000+0  81677-4 0  99932 65047  50.0031 348.4020 0000854 160.3395 199.7510 13.29315278 40308

JSON: /api/v1/satellites/65047 · /tle

For live sub-satellite position, see the globe view (requires WebGL).

§ Visibility from observer

Set your observer location to see the next 7 days of passes ≥ 10°. The values pass through the URL so the page stays shareable.

No JS? Fill the form by hand. The geolocation button needs JavaScript.